www.pogodaiklimat.ru

Погода и климат >> Архив погоды >> Австралия >> Западная Австралия >> Мандора


ПОГОДА в Мандоре

  • Прогноз погоды в Мандоре
  • Монитор погоды в Мандоре

АРХИВ ПОГОДЫ в Мандоре

Время (UTC), дата Ветер
(напр.,м/с)
 
Видим.   Явления Облачность Т
(С)
Тd
(С)
f
(%)
Тe
(С)
Тes
(С)
Комфортность P
(гПа)
Po
(гПа)
Тmin
(С)
Tmax
(С)
R
(мм)
R24
(мм)
S
(см)
22 12.09 ЮВ 3 н/о н/о +14.8 -11.5 15 +15 +15 1018.6 1017.7
00 13.09 В 4 н/о н/о +26.0 -12.4 7 +23 +23 комфорт 1019.5 1018.6
01 13.09 В 6 н/о н/о +29.0 -12.2 6 +25 +25 комфорт 1019.5 1018.6 +9.1
03 13.09 В 6 н/о н/о +35.1 -12.9 4 +30 +30 жарко 1018.2 1017.3
04 13.09 СВ 6 н/о н/о +35.6 -16.1 3 +31 +31 жарко 1017.3 1016.4
06 13.09 С 5 н/о н/о +34.5 -6.3 7 +30 +30 жарко 1015.8 1014.9
07 13.09 С 5 н/о н/о +32.7 +4.5 17 +30 +30 жарко 1015.3 1014.4
09 13.09 СЗ 4 н/о н/о +28.4 +3.3 20 +27 +27 жарко 1015.8 1014.9
10 13.09 З 3 н/о н/о +23.9 +5.8 31 +24 +24 комфорт 1016.1 1015.2
12 13.09 ЮЗ 3 н/о н/о +18.1 +2.4 35 +18 +18 1017.8 1016.9
13 13.09 Ю 3 н/о н/о +17.7 +1.7 34 +18 +18 1018.1 1017.2 +37.4
15 13.09 Ю 3 н/о н/о +14.5 0.0 37 +14 +14 1017.8 1016.9
16 13.09 Ю 4 н/о н/о +15.1 -1.5 32 +14 +14 1017.6 1016.7
18 13.09 Ю 3 н/о н/о +14.3 -3.5 29 +14 +14 1016.8 1015.9
19 13.09 Ю 3 н/о н/о +15.9 -5.8 22 +16 +16 1016.4 1015.5
21 13.09 Ю 4 н/о н/о +15.6 -7.9 19 +15 +15 1017.0 1016.1
22 13.09 ЮВ 3 н/о н/о +14.8 -7.9 20 +15 +15 1017.4 1016.5
00 14.09 В 4 н/о н/о +26.7 -10.2 8 +23 +23 комфорт 1018.5 1017.6
01 14.09 В 5 н/о н/о +31.2 -8.6 7 +27 +27 жарко 1018.5 1017.6 +13.2
03 14.09 СВ 7 н/о н/о +35.6 -9.8 5 +31 +31 жарко 1017.2 1016.3
04 14.09 С 6 н/о н/о +36.0 -3.4 8 +32 +32 жарко 1016.3 1015.4
06 14.09 С 6 н/о н/о +32.1 -0.9 12 +29 +29 жарко 1015.0 1014.1
07 14.09 С 6 н/о н/о +32.0 +1.2 14 +29 +29 жарко 1014.8 1013.9
09 14.09 СЗ 4 н/о н/о +28.0 +7.8 28 +28 +28 жарко 1015.1 1014.2
10 14.09 З 2 н/о н/о +24.1 +11.8 46 +26 +26 жарко 1015.3 1014.4
12 14.09 ЮЗ 3 н/о н/о +18.6 +13.5 72 +19 +19 1016.4 1015.5
13 14.09 Ю 3 н/о н/о +17.9 +12.6 71 +18 +18 1016.7 1015.8 +36.8
15 14.09 Ю 3 н/о н/о +16.3 +7.3 55 +16 +16 1016.3 1015.4
16 14.09 Ю 3 н/о н/о +14.6 +5.9 56 +14 +14 1016.0 1015.1
18 14.09 штиль 0 н/о н/о +10.8 +4.3 64 +10 +10 1015.4 1014.5
19 14.09 ЮЗ 2 н/о н/о +10.0 +4.4 68 +9 +9 1015.2 1014.3
21 14.09 ЮВ 2 н/о н/о +9.3 +3.3 66 +8 +8 1015.5 1014.6
22 14.09 ЮВ 2 н/о н/о +9.6 +1.8 58 +8 +8 1016.0 1015.1
00 15.09 Ю 3 н/о н/о +26.4 -2.3 15 +24 +24 комфорт 1016.8 1015.9
01 15.09 ЮВ 3 н/о н/о +31.7 -5.0 9 +28 +28 жарко 1016.9 1016.0 +8.8
03 15.09 В 4 н/о н/о +36.7 -9.0 5 +32 +32 жарко 1015.3 1014.4
04 15.09 В 4 н/о н/о +37.1 -8.7 5 +33 +33 жарко 1014.4 1013.5
06 15.09 С 5 н/о н/о +36.0 -5.2 7 +32 +32 жарко 1012.9 1012.0
07 15.09 СЗ 5 н/о н/о +34.3 +6.6 18 +32 +32 жарко 1012.5 1011.6
09 15.09 СЗ 4 н/о н/о +28.8 +11.4 34 +29 +29 жарко 1013.0 1012.1
10 15.09 З 3 н/о н/о +24.8 +14.9 54 +28 +28 жарко 1013.5 1012.6
12 15.09 ЮЗ 3 н/о н/о +19.9 +15.5 76 +22 +22 комфорт 1014.5 1013.6
13 15.09 ЮЗ 3 н/о н/о +19.5 +15.2 76 +22 +22 комфорт 1015.1 1014.2 +36.8
15 15.09 ЮЗ 3 н/о н/о +14.6 +11.7 83 +14 +14 1014.8 1013.9
16 15.09 З 2 н/о н/о +13.7 +11.6 87 +13 +13 1014.7 1013.8
18 15.09 СЗ 3 н/о н/о +11.3 +10.0 92 +9 +9 1014.4 1013.5
19 15.09 З 3 н/о н/о +14.0 +14.0 100 +13 +13 1013.9 1013.0
21 15.09 З 3 н/о н/о +14.2 +13.9 98 +13 +13 1014.1 1013.2
22 15.09 Ю 2 н/о н/о +11.6 +10.5 93 +10 +10 1014.5 1013.6
00 16.09 ЮВ 2 н/о н/о +24.4 +3.7 26 +24 +24 комфорт 1015.8 1014.9
01 16.09 Ю 4 н/о н/о +31.4 -3.8 10 +28 +28 жарко 1015.5 1014.6 +11.1
03 16.09 Ю 4 н/о н/о +36.5 -9.2 5 +32 +32 жарко 1014.4 1013.5
04 16.09 С 6 н/о н/о +37.3 -6.3 6 +33 +33 жарко 1013.2 1012.3
06 16.09 СЗ 7 н/о н/о +29.8 +15.5 42 +33 +33 душно 1012.2 1011.3
07 16.09 СЗ 6 н/о н/о +30.0 +14.5 39 +32 +32 жарко 1012.2 1011.3
09 16.09 СЗ 4 н/о н/о +27.6 +15.9 49 +31 +31 душно 1012.1 1011.2
10 16.09 З 4 н/о н/о +24.6 +17.1 63 +28 +28 душно 1012.5 1011.6
12 16.09 З 3 н/о н/о +20.2 +17.2 83 +24 +24 комфорт 1014.0 1013.1
13 16.09 З 3 н/о н/о +19.3 +17.4 89 +22 +22 комфорт 1014.3 1013.4 +38.9
15 16.09 З 2 н/о н/о +15.1 +14.1 94 +15 +15 1014.4 1013.5
16 16.09 З 3 н/о н/о +15.9 +15.9 100 +16 +16 1014.3 1013.4
18 16.09 З 3 н/о н/о +16.0 +16.0 100 +16 +16 1013.4 1012.5
19 16.09 З 3 н/о н/о +15.5 +15.5 100 +15 +15 1013.3 1012.4
21 16.09 СЗ 3 н/о н/о +14.7 +14.7 100 +14 +14 1014.6 1013.7
22 16.09 СЗ 3 н/о н/о +15.0 +15.0 100 +14 +14 1014.8 1013.9
00 17.09 З 3 н/о н/о +25.1 +19.0 69 +30 +30 душно 1015.9 1015.0
01 17.09 З 3 н/о н/о +29.0 +16.9 48 +33 +33 очень
душно
1016.1 1015.2 +14.4
03 17.09 СЗ 4 н/о н/о +33.1 +16.5 37 +36 +36 очень
душно
1015.3 1014.4
04 17.09 СЗ 5 н/о н/о +32.7 +17.7 41 +37 +37 очень
душно
1014.5 1013.6
06 17.09 СЗ 5 н/о н/о +35.6 +6.8 17 +33 +33 жарко 1012.7 1011.8
07 17.09 СЗ 6 н/о н/о +34.3 +12.6 27 +35 +35 очень
жарко
1012.4 1011.5
09 17.09 СЗ 6 н/о н/о +26.5 +18.6 62 +31 +31 душно 1013.1 1012.2
10 17.09 СЗ 3 н/о н/о +24.3 +18.2 69 +29 +29 душно 1013.5 1012.6
12 17.09 З 3 н/о н/о +21.5 +18.9 85 +26 +26 душно 1014.8 1013.9
13 17.09 З 3 н/о н/о +20.8 +19.8 94 +26 +26 душно 1015.3 1014.4 +36.2
15 17.09 З 3 н/о н/о +19.4 +19.4 100 +22 +22 комфорт 1015.1 1014.2
16 17.09 ЮЗ 3 н/о н/о +18.7 +18.7 100 +20 +20 1014.9 1014.0
18 17.09 штиль 0 н/о н/о +13.9 +13.9 100 +13 +13 1014.7 1013.8
19 17.09 З 3 н/о н/о +14.2 +14.2 100 +13 +13 1014.4 1013.5
21 17.09 ЮЗ 3 н/о н/о +17.4 +17.4 100 +18 +18 1014.9 1014.0
22 17.09 ЮЗ 2 н/о н/о +15.8 +15.8 100 +16 +16 1015.1 1014.2
00 18.09 штиль 0 н/о н/о +22.9 +22.6 98 +31 +31 очень
душно
1016.2 1015.3
01 18.09 С 3 н/о н/о +28.0 +16.9 51 +32 +32 душно 1016.3 1015.4 +13.1
03 18.09 С 5 н/о н/о +29.3 +19.6 56 +35 +35 очень
душно
1015.5 1014.6
04 18.09 С 5 н/о н/о +29.5 +20.1 57 +36 +36 очень
душно
1014.8 1013.9
06 18.09 СЗ 5 н/о н/о +30.0 +20.3 56 +37 +37 очень
душно
1013.3 1012.4
07 18.09 СЗ 6 н/о н/о +29.3 +20.5 59 +36 +36 очень
душно
1013.0 1012.1
09 18.09 СЗ 5 н/о н/о +27.1 +20.0 65 +33 +33 очень
душно
1013.5 1012.6
10 18.09 З 3 н/о н/о +24.5 +21.4 83 +31 +31 очень
душно
1013.8 1012.9
12 18.09 З 3 н/о н/о +22.2 +22.2 100 +30 +30 очень
душно
1014.3 1013.4
13 18.09 З 4 н/о н/о +21.4 +21.4 100 +27 +27 душно 1014.5 1013.6 +30.9
15 18.09 З 3 н/о н/о +21.6 +21.6 100 +28 +28 очень
душно
1014.5 1013.6
16 18.09 З 3 н/о н/о +21.5 +21.5 100 +28 +28 очень
душно
1014.0 1013.1
18 18.09 ЮЗ 3 н/о н/о +19.2 +19.2 100 +22 +22 комфорт 1013.4 1012.5
19 18.09 З 3 н/о н/о +19.4 +19.4 100 +22 +22 комфорт 1012.9 1012.0
21 18.09 штиль 0 н/о н/о +16.3 +16.3 100 +16 +16 1013.6 1012.7
22 18.09 З 3 н/о {туман} н/о +15.5 +15.5 100 +15 +15 1013.7 1012.8
00 19.09 З 3 н/о н/о +22.7 +19 +19 1014.7 1013.8
01 19.09 З 4 н/о {туман} н/о +28.6 +22.3 69 +37 +37 очень
душно
1014.4 1013.5 +15.1
03 19.09 СЗ 5 н/о н/о +32.6 +21.8 53 +41 +41 опасность
перегрева
1013.2 1012.3
04 19.09 СЗ 5 н/о н/о +33.0 +21.8 52 +41 +41 опасность
перегрева
1012.3 1011.4
06 19.09 З 8 н/о н/о +34.9 +14.2 29 +36 +36 душно 1010.8 1009.9
07 19.09 С 6 н/о н/о +31.9 +19.2 47 +37 +37 очень
душно
1010.9 1010.0
09 19.09 СЗ 5 н/о н/о +26.8 +19.7 65 +33 +33 очень
душно
1011.6 1010.7
10 19.09 СЗ 5 н/о н/о +24.7 +19.3 72 +30 +30 очень
душно
1012.1 1011.2
12 19.09 З 4 н/о н/о +22.8 +18.3 76 +28 +28 душно 1012.8 1011.9
13 19.09 З 4 н/о н/о +22.1 +18.7 81 +27 +27 душно 1012.9 1012.0 +36.0
15 19.09 З 4 н/о н/о +20.9 +20.9 100 +26 +26 душно 1013.0 1012.1
16 19.09 З 4 н/о н/о +21.3 +21.3 100 +27 +27 душно 1012.7 1011.8
18 19.09 ЮЗ 3 н/о н/о +18.7 +18.7 100 +20 +20 1012.4 1011.5
19 19.09 Ю 3 н/о н/о +19.6 +19.6 100 +23 +23 комфорт 1012.6 1011.7
21 19.09 ЮВ 2 н/о н/о +17.4 +17.4 100 +18 +18 1013.9 1013.0
22 19.09 Ю 4 н/о н/о +17.4 +17.4 100 +17 +17 1014.6 1013.7

 

Местоположение метеостанции Мандора (Западная Австралия, Австралия): широта -19.73 долгота 120.85 высота над уровнем моря 8 м.

В архиве по умолчанию представлена погода в Мандоре за последнюю неделю. Архивные данные за месяц целиком и за предыдущие месяцы, начиная с января 2011 года, Вы можете получить, выбрав интересующий диапазон дат из раскрывающегося списка и нажав кнопку "Ввод!".


*Определитесь, кто Вы:
робот инопланетянин человек

Внимание! Время в таблицах - всемирное. Для получения местного времени необходимо прибавить поправку, которая равна 8 ч.

Смотрите также архив погоды в соседних городах и на ближайших метеорологических станциях:

Погода в Марбл-баре (Западная Австралия, Австралия) (198 км)
Погода в Порт-Хедленде Apardoo (Западная Австралия, Австралия) (242 км)
Погода в Бруме (Западная Австралия, Австралия) (246 км)
Погода в Робак Запад (Западная Австралия, Австралия) (256 км)
Погода в Телфере (Западная Австралия, Австралия) (262 км)
Погода в Роули Шоалс (Западная Австралия, Австралия) (316 км)
Погода на Базе ВВС Curtin (Западная Австралия, Австралия) (394 км)
Погода в Дерби (Северная территория, Австралия) (397 км)
Погода в Роборн аэропорту (Западная Австралия, Австралия) (402 км)
Погода в Ньюмане (Западная Австралия, Австралия) (423 км)

Пояснения к столбцам:

Ветер - указаны скорость ветра в м/с - средняя за 10 мин, порывы в срок и между сроками (в фигурных скобках) и направление, откуда дует ветер: С - северный, СВ - северо-восточный, В - восточный, ЮВ - юго-восточный, Ю - южный, ЮЗ - юго-западный, З - западный, СЗ - северо-западный.
Видимость - горизонтальная дальность видимости в метрах или километрах. При видимости от 1 до 10 км при отсутствии осадков обычно наблюдается дымка, при ухудшении видимости до 1 км и менее - туман. В сухую погоду видимость может ухудшаться дымом, пылью или мглою.
Явления - указаны атмосферные явления, наблюдавшиеся в срок или в последний час перед сроком; фигурными скобками обозначены явления, наблюдавшиеся между сроками (за 1-3 часа до срока); квадратными скобками обозначены град или гололедные отложения с указанием их диаметра в мм.
Облачность - указаны через наклонную черту общая и нижняя облачность в баллах и высота нижней границы облаков в метрах; квадратными скобками обозначены формы облаков: Ci - перистые, Cs - перисто-слоистые, Cc - перисто-кучевые, Ac - высококучевые, As - высокослоистые, Sc - слоисто-кучевые, Ns - слоисто-дождевые, Cu - кучевые, Cb - кучево-дождевые. Подробнее классификацию облаков см. в Атласе облаков (PDF).
T - Температура воздуха - температура, измеренная на высоте 2 м над землей.
Td - Температура точки росы - температура, при понижении до которой содержащийся в воздухе водяной пар достигнет насыщения.
f - Относительная влажность воздуха - влажноcть воздуха, измеренная на высоте 2 м над землей.
Te - Эффективная температура - температура, которую ощущает одетый по сезону человек в тени. Характеристика душности погоды. При расчете учитывается влияние влажности воздуха и скорости ветра на теплоощущения человека.
Tes - Эффективная температура на солнце - температура, которую ощущает человек, с поправкой на солнечный нагрев. Характеристика знойности погоды. Зависит от высоты солнца над горизонтом, облачности и скорости ветра. Ночью, в пасмурную погоду, а также при ветре 12 м/с и более поправка равна нулю.
P - Атмосферное давление - приведенное к уровню моря атмосферное давление.
Po - Атмосферное давление - измеренное на уровне метеостанции атмосферное давление.
Tmin - Минимальная температура - минимум температуры воздуха на высоте 2 м над землей.
Tmax - Максимальная температура - максимум температуры воздуха на высоте 2 м над землей.
R - Количество осадков - Количество выпавших осадков за период времени, мм. При наведении курсора мыши на число - период времени, за который выпало указанное количество осадков.
R24 - Количество осадков - Количество выпавших осадков за 24 часа, мм.
S - Снежный покров - Высота снежного покрова, см. При наведении курсора мыши на число - состояние снежного покрова и степень покрытия местности в баллах.